[[{"header":{"parameterUnit":"m.s-1","parameterCategory":1,"la1":30.2991,"la2":30.254,"lo1":-89.0895,"lo2":-89.0444,"dy":0.0017,"dx":0.0017,"nx":28,"ny":28,"refTime":"2023-08-28T09:00:00:Z","depth":0,"parameterNumber":2,"parameterNumberName":"U-component_of_WINDS"},"data":[0,0,0,0,0,0,0,0,0,0,0,0,0,0,0,0,0,0,0,0,0,0,0,0,0,0,0,0,0,0,0,0,0,0,0,0,0,0,0,0,0,0,0,0,0,0,0,0,0,0,0,0,0,0,0,0,0,0,-2.3741,-2.3741,0,-2.3744,-2.3744,-2.3744,-2.3734,-2.3733,-2.3733,-2.3733,-2.3734,-2.3734,-2.3734,0,0,0,0,0,0,0,0,0,0,0,0,0,-2.3728,-2.3729,-2.3741,-2.3741,-2.3741,-2.3744,-2.3744,-2.3744,-2.3734,-2.3733,-2.3733,-2.3733,-2.3734,-2.3734,-2.3734,0,0,0,0,0,0,0,0,0,0,0,0,0,-2.3733,-2.3729,-2.3741,-2.3737,-2.3736,-2.3744,-2.3744,-2.3744,-2.3734,-2.3733,-2.3733,-2.3733,-2.3733,-2.3734,-2.3734,-2.3746,0,0,-2.3736,-2.3736,0,0,0,0,0,0,0,0,-2.3732,-2.3733,-2.3737,-2.3737,-2.3737,-2.3738,-2.3739,-2.3744,-2.3734,-2.3735,-2.3733,-2.3732,-2.3735,-2.3736,-2.3737,-2.3746,-2.3746,-2.3736,-2.3736,-2.3736,-2.3736,0,0,0,0,0,0,0,-2.3732,-2.3733,-2.3742,-2.3737,-2.3737,-2.3735,-2.3735,-2.374,-2.3737,-2.3735,-2.3734,-2.3734,-2.3735,-2.3737,-2.3737,-2.3746,-2.3736,-2.3736,-2.3736,-2.3736,-2.3766,-2.3767,0,0,0,0,0,0,-2.3733,-2.3733,-2.3742,-2.3742,-2.3733,-2.3735,-2.3735,-2.3738,-2.3737,-2.3737,-2.3735,-2.3734,-2.3736,-2.3736,-2.3737,-2.3751,-2.3736,-2.3737,-2.3737,-2.3766,-2.3766,-2.3767,0,0,0,0,0,0,-2.3732,-2.3733,-2.3742,-2.3737,-2.3738,-2.3736,-2.3739,-2.3738,-2.374,-2.3737,-2.3737,-2.3737,-2.3736,-2.3736,-2.3744,-2.3751,-2.3737,-2.3737,-2.3765,-2.3766,-2.3767,-2.3779,0,0,0,0,0,0,-2.3732,-2.3733,-2.3737,-2.3738,-2.3739,-2.3749,-2.3739,-2.3739,-2.3741,-2.374,-2.3739,-2.3739,-2.3735,-2.3744,-2.3745,-2.3751,-2.3737,-2.3764,-2.3766,-2.3766,-2.3778,-2.378,-2.3782,0,0,0,0,0,-2.3732,-2.374,-2.3738,-2.3739,-2.3743,-2.3749,-2.375,-2.3746,-2.3741,-2.3745,-2.3745,-2.3739,-2.3751,-2.3744,-2.3746,-2.3752,-2.3764,-2.3765,-2.3766,-2.3777,-2.378,-2.3782,0,0,0,0,0,0,-2.3739,-2.374,-2.3737,-2.3746,-2.3748,-2.3748,-2.3752,-2.3749,-2.3752,-2.3751,-2.3746,-2.3746,-2.3755,-2.3755,-2.3748,-2.3765,-2.3756,-2.3758,-2.3764,-2.3767,-2.3769,-2.3768,-2.3738,0,0,0,0,0,-2.3742,-2.3747,-2.3747,-2.3755,-2.3756,-2.3755,-2.3757,-2.3754,-2.3756,-2.3756,-2.3756,-2.3757,-2.3762,-2.3764,-2.3768,-2.3779,-2.3779,-2.3784,-2.3786,-2.3788,-2.3789,-2.3796,-2.3799,-2.3771,-2.3771,-2.3771,0,0,-2.3748,-2.3749,-2.3752,-2.3757,-2.3758,-2.3763,-2.3755,-2.3761,-2.3765,-2.3757,-2.3765,-2.3765,-2.3766,-2.3776,-2.3781,-2.3776,-2.3797,-2.379,-2.3791,-2.3791,-2.3798,-2.38,-2.3803,-2.3772,-2.3772,-2.3771,0,0,-2.3761,-2.3762,-2.3769,-2.3771,-2.3774,-2.3773,-2.3775,-2.3776,-2.3776,-2.3784,-2.3779,-2.3784,-2.3791,-2.3793,-2.3795,-2.3813,-2.3808,-2.3814,-2.3824,-2.3831,-2.3833,-2.3835,-2.3842,-2.3844,-2.3815,-2.3815,-2.3815,0,-2.3767,-2.3775,-2.3773,-2.378,-2.3783,-2.3778,-2.3786,-2.3788,-2.3791,-2.3793,-2.3789,-2.3799,-2.38,-2.3811,-2.3815,-2.3817,-2.3819,-2.3813,-2.3833,-2.3835,-2.3837,-2.3843,-2.3846,-2.3816,-2.3816,-2.3816,-2.3816,0,-2.3784,-2.3789,-2.3795,-2.38,-2.3804,-2.3811,-2.381,-2.3814,-2.3812,-2.3812,-2.3822,-2.3823,-2.3827,-2.383,-2.3828,-2.3841,-2.3839,-2.3834,-2.3825,-2.384,-2.3846,-2.3849,-2.3817,-2.3817,-2.3817,-2.3816,0,0,-2.3799,-2.3805,-2.3807,-2.381,-2.3814,-2.3818,-2.3826,-2.3832,-2.3836,-2.3839,-2.3846,-2.3854,-2.385,-2.3852,-2.385,-2.3857,-2.3872,-2.3851,-2.3851,-2.3855,-2.3888,-2.3891,-2.3894,-2.3869,-2.387,-2.387,-2.3888,0,-2.3812,-2.3826,-2.3825,-2.3838,-2.3844,-2.3841,-2.3848,-2.3852,-2.3853,-2.3858,-2.3859,-2.3865,-2.386,-2.3861,-2.3868,-2.3868,-2.3878,-2.3867,-2.3875,-2.3876,-2.3874,-2.3897,-2.39,-2.3917,-2.389,-2.3891,-2.3891,0,-2.3828,-2.3834,-2.3848,-2.3853,-2.3855,-2.3861,-2.3868,-2.3873,-2.3878,-2.3878,-2.3882,-2.388,-2.3889,-2.3882,-2.3894,-2.3887,-2.3891,-2.3892,-2.3893,-2.3892,-2.3883,-2.3897,-2.3922,-2.3924,-2.3894,-2.3894,-2.3894,0,-2.3839,-2.385,-2.386,-2.3862,-2.3868,-2.3873,-2.3876,-2.388,-2.3884,-2.389,-2.3893,-2.3899,-2.3903,-2.3908,-2.3908,-2.3903,-2.3921,-2.3913,-2.3922,-2.3922,-2.3925,-2.3925,-2.395,-2.3928,-2.3928,-2.3928,-2.3928,0,-2.3853,-2.3862,-2.3865,-2.3871,-2.3881,-2.3881,-2.3891,-2.3894,-2.3898,-2.3905,-2.3903,-2.391,-2.391,-2.3917,-2.3917,-2.3928,-2.3929,-2.393,-2.393,-2.393,-2.393,-2.3932,-2.393,-2.3929,-2.3929,-2.3929,-2.3929,0,-2.3866,-2.3868,-2.3879,-2.3885,-2.3887,-2.3894,-2.3899,-2.3905,-2.3907,-2.3916,-2.3918,-2.3921,-2.393,-2.3931,-2.394,-2.3941,-2.3954,-2.3952,-2.3952,-2.3952,-2.3961,-2.396,-2.3988,-2.3992,-2.3967,-2.3968,-2.3968,0,-2.3875,-2.3881,-2.3889,-2.3894,-2.3897,-2.3905,-2.3909,-2.3911,-2.3916,-2.3923,-2.3929,-2.3938,-2.3944,-2.3958,-2.3961,-2.3969,-2.3968,-2.3977,-2.3969,-2.3969,-2.3968,-2.3967,-2.3968,-2.3978,-2.3978,-2.3979,-2.3979,0,-2.389,-2.3892,-2.3899,-2.3907,-2.3913,-2.392,-2.3926,-2.393,-2.3932,-2.3938,-2.3948,-2.3953,-2.3964,-2.3973,-2.3981,-2.3984,-2.3982,-2.3982,-2.3984,-2.3984,-2.3984,-2.3984,-2.3956,-2.3981,-2.3981,-2.398,-2.398,-2.398,-2.3901,-2.3908,-2.3914,-2.3923,-2.3928,-2.3935,-2.3941,-2.3945,-2.3953,-2.3962,-2.3963,-2.3973,-2.398,-2.3991,-2.3995,-2.4003,-2.4,-2.4003,-2.4004,-2.4005,-2.4006,-2.3983,-2.4005,-2.4005,-2.4005,-2.4004,-2.4004,0,-2.3917,-2.3922,-2.393,-2.3939,-2.3946,-2.3945,-2.3953,-2.3959,-2.3968,-2.3974,-2.3982,-2.3993,-2.4002,-2.4007,-2.4017,-2.4023,-2.4022,-2.4025,-2.4024,-2.4025,-2.4008,-2.4005,-2.4025,-2.4025,-2.4025,-2.4025,-2.4025,-2.4025,-2.3926,-2.3937,-2.394,-2.3954,-2.3959,-2.397,-2.3974,-2.398,-2.3986,-2.3999,-2.4007,-2.401,-2.4017,-2.4027,-2.4036,-2.4037,-2.404,-2.4044,-2.4045,-2.4028,-2.4026,-2.4024,-2.4021,-2.4045,-2.4045,-2.4061,-2.4061,-2.4061]},{"header":{"parameterUnit":"m.s-1","parameterCategory":1,"la1":30.2991,"la2":30.254,"lo1":-89.0895,"lo2":-89.0444,"dy":0.0017,"dx":0.0017,"nx":28,"ny":28,"refTime":"2023-08-28T09:00:00:Z","depth":0,"parameterNumber":3,"parameterNumberName":"V-component_of_WINDS"},"data":[0,0,0,0,0,0,0,0,0,0,0,0,0,0,0,0,0,0,0,0,0,0,0,0,0,0,0,0,0,0,0,0,0,0,0,0,0,0,0,0,0,0,0,0,0,0,0,0,0,0,0,0,0,0,0,0,0,0,4.0148,4.0149,0,4.0154,4.0154,4.0154,4.0149,4.0149,4.0149,4.0149,4.0152,4.0152,4.0152,0,0,0,0,0,0,0,0,0,0,0,0,0,4.0133,4.0133,4.0148,4.0149,4.0149,4.0154,4.0154,4.0154,4.0149,4.0149,4.0149,4.0149,4.0152,4.0152,4.0152,0,0,0,0,0,0,0,0,0,0,0,0,0,4.0139,4.0134,4.0148,4.0147,4.0147,4.0154,4.0154,4.0154,4.015,4.0149,4.0149,4.0149,4.0151,4.0152,4.0152,4.016,0,0,4.0153,4.0153,0,0,0,0,0,0,0,0,4.0139,4.014,4.0147,4.0147,4.0147,4.0151,4.0149,4.0156,4.015,4.0148,4.0149,4.0149,4.0151,4.0152,4.0153,4.016,4.016,4.0153,4.0153,4.0154,4.0154,0,0,0,0,0,0,0,4.0138,4.0139,4.015,4.0147,4.0147,4.0146,4.0146,4.0151,4.0151,4.0149,4.0148,4.0149,4.0151,4.0153,4.0153,4.016,4.0153,4.0154,4.0154,4.0154,4.0175,4.0175,0,0,0,0,0,0,4.0138,4.0139,4.015,4.0151,4.0142,4.0146,4.0147,4.015,4.0151,4.0151,4.0149,4.0149,4.0152,4.0153,4.0153,4.0163,4.0154,4.0154,4.0154,4.0174,4.0175,4.0175,0,0,0,0,0,0,4.0138,4.0139,4.015,4.0145,4.0146,4.0147,4.015,4.015,4.0152,4.0152,4.0152,4.0151,4.0152,4.0153,4.0159,4.0163,4.0154,4.0154,4.0174,4.0174,4.0175,4.0182,0,0,0,0,0,0,4.0138,4.0139,4.0142,4.0145,4.0146,4.0156,4.015,4.015,4.0153,4.0152,4.0153,4.0153,4.0152,4.0158,4.0159,4.0163,4.0155,4.0173,4.0174,4.0175,4.0182,4.0183,4.0184,0,0,0,0,0,4.0137,4.0143,4.0143,4.0144,4.015,4.0156,4.0157,4.0156,4.0153,4.0156,4.0156,4.0153,4.0163,4.0159,4.016,4.0164,4.0173,4.0174,4.0175,4.0181,4.0183,4.0184,0,0,0,0,0,0,4.014,4.0144,4.0143,4.015,4.0153,4.0155,4.0159,4.0158,4.016,4.016,4.0158,4.0158,4.0165,4.0165,4.0161,4.0172,4.0167,4.0168,4.0172,4.0174,4.0175,4.0174,4.0155,0,0,0,0,0,4.0142,4.0147,4.0149,4.0155,4.0157,4.0158,4.016,4.016,4.0162,4.0163,4.0164,4.0166,4.0169,4.0171,4.0174,4.0182,4.0182,4.0186,4.0187,4.0188,4.0189,4.0194,4.0195,4.0177,4.0177,4.0177,0,0,4.0144,4.0147,4.015,4.0156,4.0158,4.0163,4.0159,4.0164,4.0167,4.0163,4.017,4.017,4.0172,4.0179,4.0182,4.018,4.0194,4.0189,4.019,4.019,4.0195,4.0196,4.0198,4.0178,4.0178,4.0178,0,0,4.0153,4.0155,4.0161,4.0164,4.0168,4.0169,4.017,4.0173,4.0174,4.0181,4.0178,4.0182,4.0188,4.019,4.0192,4.0203,4.02,4.0204,4.021,4.0215,4.0217,4.0218,4.0223,4.0224,4.0205,4.0205,4.0205,0,4.0156,4.0164,4.0164,4.017,4.0173,4.0172,4.0178,4.018,4.0184,4.0186,4.0184,4.0192,4.0193,4.0201,4.0204,4.0206,4.0207,4.0203,4.0217,4.0218,4.0219,4.0223,4.0225,4.0205,4.0205,4.0205,4.0205,0,4.0167,4.0173,4.0178,4.0184,4.0187,4.0193,4.0194,4.0198,4.0197,4.0198,4.0206,4.0207,4.0211,4.0213,4.0212,4.0222,4.022,4.0217,4.0212,4.0221,4.0225,4.0227,4.0206,4.0206,4.0206,4.0205,0,0,4.0176,4.0184,4.0186,4.0189,4.0194,4.0198,4.0204,4.021,4.0213,4.0216,4.0222,4.0228,4.0226,4.0228,4.0227,4.0231,4.0241,4.0228,4.0228,4.0231,4.0253,4.0255,4.0257,4.024,4.024,4.024,4.0253,0,4.0185,4.0197,4.0198,4.0209,4.0214,4.0214,4.0219,4.0223,4.0225,4.0229,4.0231,4.0235,4.0232,4.0233,4.0238,4.0239,4.0246,4.0238,4.0244,4.0245,4.0244,4.0259,4.0261,4.0273,4.0254,4.0254,4.0255,0,4.0196,4.0202,4.0213,4.022,4.0222,4.0227,4.0233,4.0237,4.0242,4.0243,4.0246,4.0245,4.0252,4.0247,4.0256,4.0251,4.0254,4.0255,4.0255,4.0256,4.025,4.026,4.0276,4.0278,4.0257,4.0257,4.0257,0,4.0202,4.0213,4.0221,4.0224,4.0231,4.0235,4.0238,4.0242,4.0246,4.025,4.0253,4.0258,4.0261,4.0265,4.0266,4.0262,4.0275,4.027,4.0276,4.0276,4.0278,4.0278,4.0295,4.028,4.028,4.028,4.028,0,4.0212,4.0219,4.0224,4.0229,4.0238,4.024,4.0248,4.025,4.0254,4.026,4.0259,4.0265,4.0265,4.0271,4.0271,4.0279,4.028,4.0281,4.0281,4.0281,4.0281,4.0283,4.0282,4.028,4.028,4.028,4.028,0,4.022,4.0223,4.0233,4.024,4.0241,4.0247,4.0253,4.0258,4.026,4.0267,4.0269,4.0272,4.0279,4.028,4.0287,4.0288,4.0297,4.0296,4.0296,4.0296,4.0303,4.0302,4.0321,4.0324,4.0307,4.0307,4.0307,0,4.0226,4.0232,4.024,4.0244,4.0248,4.0254,4.0259,4.0261,4.0266,4.0272,4.0277,4.0283,4.0289,4.0299,4.0302,4.0308,4.0307,4.0314,4.0308,4.0308,4.0308,4.0308,4.0309,4.0314,4.0315,4.0315,4.0315,0,4.0236,4.0238,4.0245,4.0253,4.0259,4.0265,4.027,4.0274,4.0277,4.0282,4.029,4.0294,4.0303,4.031,4.0316,4.0318,4.0317,4.0317,4.0319,4.0319,4.0319,4.032,4.03,4.0316,4.0316,4.0316,4.0316,4.0316,4.0244,4.0249,4.0257,4.0264,4.027,4.0275,4.0281,4.0285,4.0292,4.03,4.03,4.0309,4.0314,4.0323,4.0326,4.0332,4.033,4.0332,4.0333,4.0334,4.0335,4.0318,4.0333,4.0333,4.0333,4.0333,4.0333,0,4.0255,4.026,4.0267,4.0276,4.0283,4.0283,4.029,4.0295,4.0303,4.0308,4.0315,4.0324,4.0331,4.0335,4.0342,4.0346,4.0346,4.0348,4.0348,4.0348,4.0336,4.0334,4.0348,4.0348,4.0348,4.0348,4.0348,4.0348,4.0261,4.0271,4.0275,4.0287,4.0292,4.0301,4.0306,4.0311,4.0316,4.0327,4.0333,4.0336,4.0341,4.0349,4.0356,4.0357,4.0359,4.0362,4.0363,4.0351,4.0349,4.0348,4.0346,4.0362,4.0362,4.0375,4.0375,4.0375]}]]